www.pogodaiklimat.ru

Погода и климат >> Архив погоды >> Индия >> Wardha


ПОГОДА в Wardha

  • Прогноз погоды в Wardha
  • Монитор погоды в Wardha
  • Климат города

АРХИВ ПОГОДЫ в Wardha

Время (UTC), дата Ветер
(напр.,м/с)
 
Видим.   Явления Облачность Т
(С)
Тd
(С)
f
(%)
Тe
(С)
Тes
(С)
Комфортность P
(гПа)
Po
(гПа)
Тmin
(С)
Tmax
(С)
R
(мм)
R24
(мм)
S
(см)
03 10.07 З 1 2000 м 10/5 600 м
[Frnb As op]
+25.4 +23.9 91 +35 +36 очень
душно
1000.8 1001.0 +24.1 8
06 10.07 З 1 2000 м 10/5 200 м
[Frnb As op]
+26.4 +24.7 90 +37 +40 очень
душно
1000.6 1001.0 1
09 10.07 З 1 2000 м 10/5 200 м
[Frnb As op]
+25.5 +24.8 96 +36 +38 очень
душно
999.1 999.0 6
12 10.07 З 3 2000 м 10/5 200 м
[Frnb As op]
+25.6 +24.7 95 +36 +36 очень
душно
998.3 998.0 +26.5 6
03 11.07 З 1 2000 м 10/5 600 м
[Frnb As op]
+25.0 +23.5 91 +34 +35 очень
душно
1000.1 1000.0 +24.2 6
06 11.07 З 4 4000 м 10/5 600 м
[Frnb As op]
+26.5 +24.4 88 +37 +38 очень
душно
1001.6 1002.0
09 11.07 З 2 2000 м 10/5 600 м
[Frnb As op]
+26.6 +24.9 90 +38 +40 очень
душно
999.6 1000.0
12 11.07 З 3 4000 м 10/5 600 м
[Frnb As op]
+26.0 +24.6 92 +37 +37 очень
душно
997.9 998.0 +27.2 2
03 12.07 З 2 2000 м 10/5 600 м
[Frnb As op]
+24.5 +23.8 96 +33 +34 очень
душно
999.1 999.0 +22.9 39
06 12.07 З 4 2000 м 10/5 600 м
[Frnb As op]
+25.8 +23.8 89 +35 +37 очень
душно
1000.1 1000.0
09 12.07 З 3 2000 м 10/5 600 м
[Frnb As op]
+25.0 +23.5 91 +34 +35 очень
душно
998.6 999.0
12 12.07 З 3 4000 м 10/4 600 м
[Sc Ac trans]
+25.2 +23.4 90 +34 +34 очень
душно
998.1 998.0 +26.0
03 13.07 З 2 4000 м 9/4 600 м
[Sc Ac trans]
+25.0 +23.5 91 +34 +36 очень
душно
1001.1 1001.0 +23.5
06 13.07 З 3 4000 м 10/4
[Sc Ac trans Ci fib]
+29.0 +24.7 78 +41 +47 опасность
перегрева
999.8 1000.0
09 13.07 З 3 10 км 9/4
[Sc Ac trans Ci fib]
+30.5 +24.7 71 +43 +48 опасность
перегрева
999.2 999.0
12 13.07 З 2 10 км 10/4
[Sc Ac trans Ci fib]
+30.0 +24.9 74 +43 +44 опасность
перегрева
996.7 997.0 +31.0
03 14.07 З 1 4000 м 10/4
[Sc Ac trans]
+26.0 +23.7 87 +35 +38 очень
душно
1000.3 1000.0 +23.9 3
06 14.07 З 4 4000 м 10/4
[Sc Ac trans Ci fib]
+29.4 +24.5 75 +42 +46 опасность
перегрева
998.9 999.0
09 14.07 З 3 4000 м 10/4 600 м
[Sc Ac trans]
+29.5 +24.8 76 +42 +46 опасность
перегрева
997.9 998.0
12 14.07 З 3 4000 м 10/4 600 м
[Sc Ac trans]
+29.5 +25.1 77 +43 +43 опасность
перегрева
995.6 996.0 +31.0 0.2
03 15.07 З 2 4000 м 10/5 600 м
[Frnb As op]
+26.0 +24.0 89 +36 +37 очень
душно
999.1 999.0 +24.5 0.2
06 15.07 З 1 4000 м 10/4
[Sc Ac trans Ci fib]
+29.4 +25.1 78 +43 +50 опасность
перегрева
997.4 997.0
03 16.07 З 2 4000 м 10/5 600 м
[Frnb As op]
+25.9 +24.1 90 +36 +37 очень
душно
998.5 999.0 +24.7 1
06 16.07 З 1 4000 м слабый дождь {морось} 10/5 600 м
[Frnb As op]
+26.0 +24.9 94 +37 +40 очень
душно
999.1 999.0 3
09 16.07 З 1 4000 м 10/5 600 м
[Frnb As op]
+26.4 +25.3 94 +38 +40 очень
душно
997.9 998.0 5
12 16.07 З 1 4000 м 10/5 600 м
[Frnb As op]
+27.0 +25.3 90 +39 +39 очень
душно
996.9 997.0 +27.5 5

 

Местоположение метеостанции Wardha (Maharashtra, Индия): широта 20.67 долгота 78.58 высота над уровнем моря 283 м.

В архиве по умолчанию представлена погода в Wardha за последнюю неделю. Архивные данные за месяц целиком и за предыдущие месяцы, начиная с января 2011 года, Вы можете получить, выбрав интересующий диапазон дат из раскрывающегося списка и нажав кнопку "Ввод!".


*Определитесь, кто Вы:
робот инопланетянин человек

Внимание! Время в таблицах - всемирное. Для получения местного времени необходимо прибавить поправку, которая в Wardha равна 5.5 ч.

Смотрите также архив погоды в соседних городах и на ближайших метеорологических станциях:

Погода в Yeotmal (Maharashtra, Индия) (54 км)
Погода в Nagpur (Maharashtra, Индия) (68 км)
Погода в Amravati (Maharashtra, Индия) (88 км)
Погода в Chandrapur (Maharashtra, Индия) (108 км)
Погода в Adilabad (Telangana, Индия) (114 км)
Погода в Bramhapuri (Maharashtra, Индия) (132 км)
Погода в Betul (Madhya Pradesh, Индия) (150 км)
Погода в Akola (Maharashtra, Индия) (161 км)
Погода в Washim (Maharashtra, Индия) (163 км)
Погода в Chhindwara (Madhya Pradesh, Индия) (165 км)

Пояснения к столбцам:

Ветер - указаны скорость ветра в м/с - средняя за 10 мин, порывы в срок и между сроками (в фигурных скобках) и направление, откуда дует ветер: С - северный, СВ - северо-восточный, В - восточный, ЮВ - юго-восточный, Ю - южный, ЮЗ - юго-западный, З - западный, СЗ - северо-западный.
Видимость - горизонтальная дальность видимости в метрах или километрах. При видимости от 1 до 10 км при отсутствии осадков обычно наблюдается дымка, при ухудшении видимости до 1 км и менее - туман. В сухую погоду видимость может ухудшаться дымом, пылью или мглою.
Явления - указаны атмосферные явления, наблюдавшиеся в срок или в последний час перед сроком; фигурными скобками обозначены явления, наблюдавшиеся между сроками (за 1-3 часа до срока); квадратными скобками обозначены град или гололедные отложения с указанием их диаметра в мм.
Облачность - указаны через наклонную черту общая и нижняя облачность в баллах и высота нижней границы облаков в метрах; квадратными скобками обозначены формы облаков: Ci - перистые, Cs - перисто-слоистые, Cc - перисто-кучевые, Ac - высококучевые, As - высокослоистые, Sc - слоисто-кучевые, Ns - слоисто-дождевые, Cu - кучевые, Cb - кучево-дождевые. Подробнее классификацию облаков см. в Атласе облаков (PDF).
T - Температура воздуха - температура, измеренная на высоте 2 м над землей.
Td - Температура точки росы - температура, при понижении до которой содержащийся в воздухе водяной пар достигнет насыщения.
f - Относительная влажность воздуха - влажноcть воздуха, измеренная на высоте 2 м над землей.
Te - Эффективная температура - температура, которую ощущает одетый по сезону человек в тени. Характеристика душности погоды. При расчете учитывается влияние влажности воздуха и скорости ветра на теплоощущения человека.
Tes - Эффективная температура на солнце - температура, которую ощущает человек, с поправкой на солнечный нагрев. Характеристика знойности погоды. Зависит от высоты солнца над горизонтом, облачности и скорости ветра. Ночью, в пасмурную погоду, а также при ветре 12 м/с и более поправка равна нулю.
P - Атмосферное давление - приведенное к уровню моря атмосферное давление.
Po - Атмосферное давление - измеренное на уровне метеостанции атмосферное давление.
Tmin - Минимальная температура - минимум температуры воздуха на высоте 2 м над землей.
Tmax - Максимальная температура - максимум температуры воздуха на высоте 2 м над землей.
R - Количество осадков - Количество выпавших осадков за период времени, мм. При наведении курсора мыши на число - период времени, за который выпало указанное количество осадков.
R24 - Количество осадков - Количество выпавших осадков за 24 часа, мм.
S - Снежный покров - Высота снежного покрова, см. При наведении курсора мыши на число - состояние снежного покрова и степень покрытия местности в баллах.